﻿_id,日時,10分間移動積算雨量(mm),1時間移動積算雨量(mm),日雨量(mm),累計雨量(mm)
1,2020-11-02T00:00:00,0,0,0,0
2,2020-11-02T00:01:00,0,0,0,0
3,2020-11-02T00:02:00,0,0,0,0
4,2020-11-02T00:03:00,0,0,0,0
5,2020-11-02T00:04:00,0,0,0,0
6,2020-11-02T00:05:00,0,0,0,0
7,2020-11-02T00:06:00,0,0,0,0
8,2020-11-02T00:07:00,0,0,0,0
9,2020-11-02T00:08:00,0,0,0,0
10,2020-11-02T00:09:00,0,0,0,0
11,2020-11-02T00:10:00,0,0,0,0
12,2020-11-02T00:11:00,0,0,0,0
13,2020-11-02T00:12:00,0,0,0,0
14,2020-11-02T00:13:00,0,0,0,0
15,2020-11-02T00:14:00,0,0,0,0
16,2020-11-02T00:15:00,0,0,0,0
17,2020-11-02T00:16:00,0,0,0,0
18,2020-11-02T00:17:00,0,0,0,0
19,2020-11-02T00:18:00,0,0,0,0
20,2020-11-02T00:19:00,0,0,0,0
21,2020-11-02T00:20:00,0,0,0,0
22,2020-11-02T00:21:00,0,0,0,0
23,2020-11-02T00:22:00,0,0,0,0
24,2020-11-02T00:23:00,0,0,0,0
25,2020-11-02T00:24:00,0,0,0,0
26,2020-11-02T00:25:00,0,0,0,0
27,2020-11-02T00:26:00,0,0,0,0
28,2020-11-02T00:27:00,0,0,0,0
29,2020-11-02T00:28:00,0,0,0,0
30,2020-11-02T00:29:00,0,0,0,0
31,2020-11-02T00:30:00,0,0,0,0
32,2020-11-02T00:31:00,0,0,0,0
33,2020-11-02T00:32:00,0,0,0,0
34,2020-11-02T00:33:00,0,0,0,0
35,2020-11-02T00:34:00,0,0,0,0
36,2020-11-02T00:35:00,0,0,0,0
37,2020-11-02T00:36:00,0,0,0,0
38,2020-11-02T00:37:00,0,0,0,0
39,2020-11-02T00:38:00,0,0,0,0
40,2020-11-02T00:39:00,0,0,0,0
41,2020-11-02T00:40:00,0,0,0,0
42,2020-11-02T00:41:00,0,0,0,0
43,2020-11-02T00:42:00,0,0,0,0
44,2020-11-02T00:43:00,0,0,0,0
45,2020-11-02T00:44:00,0,0,0,0
46,2020-11-02T00:45:00,0,0,0,0
47,2020-11-02T00:46:00,0,0,0,0
48,2020-11-02T00:47:00,0,0,0,0
49,2020-11-02T00:48:00,0,0,0,0
50,2020-11-02T00:49:00,0,0,0,0
51,2020-11-02T00:50:00,0,0,0,0
52,2020-11-02T00:51:00,0,0,0,0
53,2020-11-02T00:52:00,0,0,0,0
54,2020-11-02T00:53:00,0,0,0,0
55,2020-11-02T00:54:00,0,0,0,0
56,2020-11-02T00:55:00,0,0,0,0
57,2020-11-02T00:56:00,0,0,0,0
58,2020-11-02T00:57:00,0,0,0,0
59,2020-11-02T00:58:00,0,0,0,0
60,2020-11-02T00:59:00,0,0,0,0
61,2020-11-02T01:00:00,0,0,0,0
62,2020-11-02T01:01:00,0,0,0,0
63,2020-11-02T01:02:00,0,0,0,0
64,2020-11-02T01:03:00,0,0,0,0
65,2020-11-02T01:04:00,0,0,0,0
66,2020-11-02T01:05:00,0,0,0,0
67,2020-11-02T01:06:00,0,0,0,0
68,2020-11-02T01:07:00,0,0,0,0
69,2020-11-02T01:08:00,0,0,0,0
70,2020-11-02T01:09:00,0,0,0,0
71,2020-11-02T01:10:00,0,0,0,0
72,2020-11-02T01:11:00,0,0,0,0
73,2020-11-02T01:12:00,0,0,0,0
74,2020-11-02T01:13:00,0,0,0,0
75,2020-11-02T01:14:00,0,0,0,0
76,2020-11-02T01:15:00,0,0,0,0
77,2020-11-02T01:16:00,0,0,0,0
78,2020-11-02T01:17:00,0,0,0,0
79,2020-11-02T01:18:00,0,0,0,0
80,2020-11-02T01:19:00,0,0,0,0
81,2020-11-02T01:20:00,0,0,0,0
82,2020-11-02T01:21:00,0,0,0,0
83,2020-11-02T01:22:00,0,0,0,0
84,2020-11-02T01:23:00,0,0,0,0
85,2020-11-02T01:24:00,0,0,0,0
86,2020-11-02T01:25:00,0,0,0,0
87,2020-11-02T01:26:00,0,0,0,0
88,2020-11-02T01:27:00,0,0,0,0
89,2020-11-02T01:28:00,0,0,0,0
90,2020-11-02T01:29:00,0,0,0,0
91,2020-11-02T01:30:00,0,0,0,0
92,2020-11-02T01:31:00,0,0,0,0
93,2020-11-02T01:32:00,0,0,0,0
94,2020-11-02T01:33:00,0,0,0,0
95,2020-11-02T01:34:00,0,0,0,0
96,2020-11-02T01:35:00,0,0,0,0
97,2020-11-02T01:36:00,0,0,0,0
98,2020-11-02T01:37:00,0,0,0,0
99,2020-11-02T01:38:00,0,0,0,0
100,2020-11-02T01:39:00,0,0,0,0
101,2020-11-02T01:40:00,0,0,0,0
102,2020-11-02T01:41:00,0,0,0,0
103,2020-11-02T01:42:00,0,0,0,0
104,2020-11-02T01:43:00,0,0,0,0
105,2020-11-02T01:44:00,0,0,0,0
106,2020-11-02T01:45:00,0,0,0,0
107,2020-11-02T01:46:00,0,0,0,0
108,2020-11-02T01:47:00,0,0,0,0
109,2020-11-02T01:48:00,0,0,0,0
110,2020-11-02T01:49:00,0,0,0,0
111,2020-11-02T01:50:00,0,0,0,0
112,2020-11-02T01:51:00,0,0,0,0
113,2020-11-02T01:52:00,0,0,0,0
114,2020-11-02T01:53:00,0,0,0,0
115,2020-11-02T01:54:00,0,0,0,0
116,2020-11-02T01:55:00,0,0,0,0
117,2020-11-02T01:56:00,0,0,0,0
118,2020-11-02T01:57:00,0,0,0,0
119,2020-11-02T01:58:00,0,0,0,0
120,2020-11-02T01:59:00,0,0,0,0
121,2020-11-02T02:00:00,0,0,0,0
122,2020-11-02T02:01:00,0,0,0,0
123,2020-11-02T02:02:00,0,0,0,0
124,2020-11-02T02:03:00,0,0,0,0
125,2020-11-02T02:04:00,0,0,0,0
126,2020-11-02T02:05:00,0.5,0.5,0.5,0.5
127,2020-11-02T02:06:00,0.5,0.5,0.5,0.5
128,2020-11-02T02:07:00,0.5,0.5,0.5,0.5
129,2020-11-02T02:08:00,0.5,0.5,0.5,0.5
130,2020-11-02T02:09:00,0.5,0.5,0.5,0.5
131,2020-11-02T02:10:00,0.5,0.5,0.5,0.5
132,2020-11-02T02:11:00,0.5,0.5,0.5,0.5
133,2020-11-02T02:12:00,0.5,0.5,0.5,0.5
134,2020-11-02T02:13:00,0.5,0.5,0.5,0.5
135,2020-11-02T02:14:00,0.5,0.5,0.5,0.5
136,2020-11-02T02:15:00,0,0.5,0.5,0.5
137,2020-11-02T02:16:00,0,0.5,0.5,0.5
138,2020-11-02T02:17:00,0,0.5,0.5,0.5
139,2020-11-02T02:18:00,0,0.5,0.5,0.5
140,2020-11-02T02:19:00,0,0.5,0.5,0.5
141,2020-11-02T02:20:00,0,0.5,0.5,0.5
142,2020-11-02T02:21:00,0,0.5,0.5,0.5
143,2020-11-02T02:22:00,0,0.5,0.5,0.5
144,2020-11-02T02:23:00,0,0.5,0.5,0.5
145,2020-11-02T02:24:00,0,0.5,0.5,0.5
146,2020-11-02T02:25:00,0,0.5,0.5,0.5
147,2020-11-02T02:26:00,0,0.5,0.5,0.5
148,2020-11-02T02:27:00,0,0.5,0.5,0.5
149,2020-11-02T02:28:00,0,0.5,0.5,0.5
150,2020-11-02T02:29:00,0,0.5,0.5,0.5
151,2020-11-02T02:30:00,0,0.5,0.5,0.5
152,2020-11-02T02:31:00,0,0.5,0.5,0.5
153,2020-11-02T02:32:00,0,0.5,0.5,0.5
154,2020-11-02T02:33:00,0,0.5,0.5,0.5
155,2020-11-02T02:34:00,0,0.5,0.5,0.5
156,2020-11-02T02:35:00,0,0.5,0.5,0.5
157,2020-11-02T02:36:00,0,0.5,0.5,0.5
158,2020-11-02T02:37:00,0,0.5,0.5,0.5
159,2020-11-02T02:38:00,0,0.5,0.5,0.5
160,2020-11-02T02:39:00,0,0.5,0.5,0.5
161,2020-11-02T02:40:00,0,0.5,0.5,0.5
162,2020-11-02T02:41:00,0,0.5,0.5,0.5
163,2020-11-02T02:42:00,0,0.5,0.5,0.5
164,2020-11-02T02:43:00,0,0.5,0.5,0.5
165,2020-11-02T02:44:00,0,0.5,0.5,0.5
166,2020-11-02T02:45:00,0,0.5,0.5,0.5
167,2020-11-02T02:46:00,0,0.5,0.5,0.5
168,2020-11-02T02:47:00,0,0.5,0.5,0.5
169,2020-11-02T02:48:00,0,0.5,0.5,0.5
170,2020-11-02T02:49:00,0,0.5,0.5,0.5
171,2020-11-02T02:50:00,0,0.5,0.5,0.5
172,2020-11-02T02:51:00,0,0.5,0.5,0.5
173,2020-11-02T02:52:00,0,0.5,0.5,0.5
174,2020-11-02T02:53:00,0,0.5,0.5,0.5
175,2020-11-02T02:54:00,0,0.5,0.5,0.5
176,2020-11-02T02:55:00,0,0.5,0.5,0.5
177,2020-11-02T02:56:00,0,0.5,0.5,0.5
178,2020-11-02T02:57:00,0,0.5,0.5,0.5
179,2020-11-02T02:58:00,0,0.5,0.5,0.5
180,2020-11-02T02:59:00,0,0.5,0.5,0.5
181,2020-11-02T03:00:00,0,0.5,0.5,0.5
182,2020-11-02T03:01:00,0,0.5,0.5,0.5
183,2020-11-02T03:02:00,0,0.5,0.5,0.5
184,2020-11-02T03:03:00,0,0.5,0.5,0.5
185,2020-11-02T03:04:00,0,0.5,0.5,0.5
186,2020-11-02T03:05:00,0,0,0.5,0.5
187,2020-11-02T03:06:00,0,0,0.5,0.5
188,2020-11-02T03:07:00,0,0,0.5,0.5
189,2020-11-02T03:08:00,0,0,0.5,0.5
190,2020-11-02T03:09:00,0,0,0.5,0.5
191,2020-11-02T03:10:00,0,0,0.5,0.5
192,2020-11-02T03:11:00,0,0,0.5,0.5
193,2020-11-02T03:12:00,0,0,0.5,0.5
194,2020-11-02T03:13:00,0,0,0.5,0.5
195,2020-11-02T03:14:00,0,0,0.5,0.5
196,2020-11-02T03:15:00,0,0,0.5,0.5
197,2020-11-02T03:16:00,0,0,0.5,0.5
198,2020-11-02T03:17:00,0,0,0.5,0.5
199,2020-11-02T03:18:00,0,0,0.5,0.5
200,2020-11-02T03:19:00,0,0,0.5,0.5
201,2020-11-02T03:20:00,0,0,0.5,0.5
202,2020-11-02T03:21:00,0,0,0.5,0.5
203,2020-11-02T03:22:00,0,0,0.5,0.5
204,2020-11-02T03:23:00,0,0,0.5,0.5
205,2020-11-02T03:24:00,0,0,0.5,0.5
206,2020-11-02T03:25:00,0,0,0.5,0.5
207,2020-11-02T03:26:00,0,0,0.5,0.5
208,2020-11-02T03:27:00,0,0,0.5,0.5
209,2020-11-02T03:28:00,0,0,0.5,0.5
210,2020-11-02T03:29:00,0,0,0.5,0.5
211,2020-11-02T03:30:00,0,0,0.5,0.5
212,2020-11-02T03:31:00,0,0,0.5,0.5
213,2020-11-02T03:32:00,0,0,0.5,0.5
214,2020-11-02T03:33:00,0,0,0.5,0.5
215,2020-11-02T03:34:00,0,0,0.5,0.5
216,2020-11-02T03:35:00,0,0,0.5,0.5
217,2020-11-02T03:36:00,0,0,0.5,0.5
218,2020-11-02T03:37:00,0,0,0.5,0.5
219,2020-11-02T03:38:00,0,0,0.5,0.5
220,2020-11-02T03:39:00,0,0,0.5,0.5
221,2020-11-02T03:40:00,0,0,0.5,0.5
222,2020-11-02T03:41:00,0,0,0.5,0.5
223,2020-11-02T03:42:00,0,0,0.5,0.5
224,2020-11-02T03:43:00,0,0,0.5,0.5
225,2020-11-02T03:44:00,0,0,0.5,0.5
226,2020-11-02T03:45:00,0,0,0.5,0.5
227,2020-11-02T03:46:00,0,0,0.5,0.5
228,2020-11-02T03:47:00,0,0,0.5,0.5
229,2020-11-02T03:48:00,0,0,0.5,0.5
230,2020-11-02T03:49:00,0,0,0.5,0.5
231,2020-11-02T03:50:00,0,0,0.5,0.5
232,2020-11-02T03:51:00,0,0,0.5,0.5
233,2020-11-02T03:52:00,0,0,0.5,0.5
234,2020-11-02T03:53:00,0,0,0.5,0.5
235,2020-11-02T03:54:00,0,0,0.5,0.5
236,2020-11-02T03:55:00,0,0,0.5,0.5
237,2020-11-02T03:56:00,0,0,0.5,0.5
238,2020-11-02T03:57:00,0,0,0.5,0.5
239,2020-11-02T03:58:00,0,0,0.5,0.5
240,2020-11-02T03:59:00,0,0,0.5,0.5
241,2020-11-02T04:00:00,0,0,0.5,0.5
242,2020-11-02T04:01:00,0,0,0.5,0.5
243,2020-11-02T04:02:00,0,0,0.5,0.5
244,2020-11-02T04:03:00,0,0,0.5,0.5
245,2020-11-02T04:04:00,0,0,0.5,0.5
246,2020-11-02T04:05:00,0,0,0.5,0.5
247,2020-11-02T04:06:00,0,0,0.5,0.5
248,2020-11-02T04:07:00,0,0,0.5,0.5
249,2020-11-02T04:08:00,0,0,0.5,0.5
250,2020-11-02T04:09:00,0,0,0.5,0.5
251,2020-11-02T04:10:00,0,0,0.5,0.5
252,2020-11-02T04:11:00,0,0,0.5,0.5
253,2020-11-02T04:12:00,0,0,0.5,0.5
254,2020-11-02T04:13:00,0,0,0.5,0.5
255,2020-11-02T04:14:00,0,0,0.5,0.5
256,2020-11-02T04:15:00,0,0,0.5,0.5
257,2020-11-02T04:16:00,0,0,0.5,0.5
258,2020-11-02T04:17:00,0,0,0.5,0.5
259,2020-11-02T04:18:00,0,0,0.5,0.5
260,2020-11-02T04:19:00,0,0,0.5,0.5
261,2020-11-02T04:20:00,0,0,0.5,0.5
262,2020-11-02T04:21:00,0,0,0.5,0.5
263,2020-11-02T04:22:00,0,0,0.5,0.5
264,2020-11-02T04:23:00,0,0,0.5,0.5
265,2020-11-02T04:24:00,0,0,0.5,0.5
266,2020-11-02T04:25:00,0,0,0.5,0.5
267,2020-11-02T04:26:00,0,0,0.5,0.5
268,2020-11-02T04:27:00,0,0,0.5,0.5
269,2020-11-02T04:28:00,0,0,0.5,0.5
270,2020-11-02T04:29:00,0,0,0.5,0.5
271,2020-11-02T04:30:00,0,0,0.5,0.5
272,2020-11-02T04:31:00,0,0,0.5,0.5
273,2020-11-02T04:32:00,0,0,0.5,0.5
274,2020-11-02T04:33:00,0,0,0.5,0.5
275,2020-11-02T04:34:00,0,0,0.5,0.5
276,2020-11-02T04:35:00,0,0,0.5,0.5
277,2020-11-02T04:36:00,0,0,0.5,0.5
278,2020-11-02T04:37:00,0,0,0.5,0.5
279,2020-11-02T04:38:00,0,0,0.5,0.5
280,2020-11-02T04:39:00,0,0,0.5,0.5
281,2020-11-02T04:40:00,0,0,0.5,0.5
282,2020-11-02T04:41:00,0,0,0.5,0.5
283,2020-11-02T04:42:00,0,0,0.5,0.5
284,2020-11-02T04:43:00,0,0,0.5,0.5
285,2020-11-02T04:44:00,0,0,0.5,0.5
286,2020-11-02T04:45:00,0,0,0.5,0.5
287,2020-11-02T04:46:00,0,0,0.5,0.5
288,2020-11-02T04:47:00,0,0,0.5,0.5
289,2020-11-02T04:48:00,0,0,0.5,0.5
290,2020-11-02T04:49:00,0,0,0.5,0.5
291,2020-11-02T04:50:00,0,0,0.5,0.5
292,2020-11-02T04:51:00,0,0,0.5,0.5
293,2020-11-02T04:52:00,0.5,0.5,1,1
294,2020-11-02T04:53:00,0.5,0.5,1,1
295,2020-11-02T04:54:00,0.5,0.5,1,1
296,2020-11-02T04:55:00,0.5,0.5,1,1
297,2020-11-02T04:56:00,0.5,0.5,1,1
298,2020-11-02T04:57:00,0.5,0.5,1,1
299,2020-11-02T04:58:00,0.5,0.5,1,1
300,2020-11-02T04:59:00,0.5,0.5,1,1
301,2020-11-02T05:00:00,0.5,0.5,1,1
302,2020-11-02T05:01:00,0.5,0.5,1,1
303,2020-11-02T05:02:00,0,0.5,1,1
304,2020-11-02T05:03:00,0,0.5,1,1
305,2020-11-02T05:04:00,0,0.5,1,1
306,2020-11-02T05:05:00,0,0.5,1,1
307,2020-11-02T05:06:00,0,0.5,1,1
308,2020-11-02T05:07:00,0,0.5,1,1
309,2020-11-02T05:08:00,0,0.5,1,1
310,2020-11-02T05:09:00,0,0.5,1,1
311,2020-11-02T05:10:00,0,0.5,1,1
312,2020-11-02T05:11:00,0,0.5,1,1
313,2020-11-02T05:12:00,0,0.5,1,1
314,2020-11-02T05:13:00,0,0.5,1,1
315,2020-11-02T05:14:00,0.5,1,1.5,1.5
316,2020-11-02T05:15:00,0.5,1,1.5,1.5
317,2020-11-02T05:16:00,0.5,1,1.5,1.5
318,2020-11-02T05:17:00,0.5,1,1.5,1.5
319,2020-11-02T05:18:00,0.5,1,1.5,1.5
320,2020-11-02T05:19:00,0.5,1,1.5,1.5
321,2020-11-02T05:20:00,0.5,1,1.5,1.5
322,2020-11-02T05:21:00,0.5,1,1.5,1.5
323,2020-11-02T05:22:00,0.5,1,1.5,1.5
324,2020-11-02T05:23:00,0.5,1,1.5,1.5
325,2020-11-02T05:24:00,0.5,1.5,2,2
326,2020-11-02T05:25:00,0.5,1.5,2,2
327,2020-11-02T05:26:00,0.5,1.5,2,2
328,2020-11-02T05:27:00,0.5,1.5,2,2
329,2020-11-02T05:28:00,0.5,1.5,2,2
330,2020-11-02T05:29:00,0.5,1.5,2,2
331,2020-11-02T05:30:00,0.5,1.5,2,2
332,2020-11-02T05:31:00,0.5,1.5,2,2
333,2020-11-02T05:32:00,0.5,1.5,2,2
334,2020-11-02T05:33:00,1,2,2.5,2.5
335,2020-11-02T05:34:00,0.5,2,2.5,2.5
336,2020-11-02T05:35:00,0.5,2,2.5,2.5
337,2020-11-02T05:36:00,0.5,2,2.5,2.5
338,2020-11-02T05:37:00,0.5,2,2.5,2.5
339,2020-11-02T05:38:00,1,2.5,3,3
340,2020-11-02T05:39:00,1,2.5,3,3
341,2020-11-02T05:40:00,1,2.5,3,3
342,2020-11-02T05:41:00,1,2.5,3,3
343,2020-11-02T05:42:00,1,2.5,3,3
344,2020-11-02T05:43:00,0.5,2.5,3,3
345,2020-11-02T05:44:00,0.5,2.5,3,3
346,2020-11-02T05:45:00,0.5,2.5,3,3
347,2020-11-02T05:46:00,1,3,3.5,3.5
348,2020-11-02T05:47:00,1,3,3.5,3.5
349,2020-11-02T05:48:00,0.5,3,3.5,3.5
350,2020-11-02T05:49:00,0.5,3,3.5,3.5
351,2020-11-02T05:50:00,0.5,3,3.5,3.5
352,2020-11-02T05:51:00,0.5,3,3.5,3.5
353,2020-11-02T05:52:00,0.5,2.5,3.5,3.5
354,2020-11-02T05:53:00,0.5,2.5,3.5,3.5
355,2020-11-02T05:54:00,0.5,2.5,3.5,3.5
356,2020-11-02T05:55:00,0.5,2.5,3.5,3.5
357,2020-11-02T05:56:00,0,2.5,3.5,3.5
358,2020-11-02T05:57:00,0.5,3,4,4
359,2020-11-02T05:58:00,0.5,3,4,4
360,2020-11-02T05:59:00,0.5,3,4,4
361,2020-11-02T06:00:00,0.5,3,4,4
362,2020-11-02T06:01:00,0.5,3,4,4
363,2020-11-02T06:02:00,0.5,3,4,4
364,2020-11-02T06:03:00,0.5,3,4,4
365,2020-11-02T06:04:00,0.5,3,4,4
366,2020-11-02T06:05:00,0.5,3,4,4
367,2020-11-02T06:06:00,0.5,3,4,4
368,2020-11-02T06:07:00,0.5,3.5,4.5,4.5
369,2020-11-02T06:08:00,0.5,3.5,4.5,4.5
370,2020-11-02T06:09:00,0.5,3.5,4.5,4.5
371,2020-11-02T06:10:00,0.5,3.5,4.5,4.5
372,2020-11-02T06:11:00,0.5,3.5,4.5,4.5
373,2020-11-02T06:12:00,0.5,3.5,4.5,4.5
374,2020-11-02T06:13:00,0.5,3.5,4.5,4.5
375,2020-11-02T06:14:00,0.5,3,4.5,4.5
376,2020-11-02T06:15:00,1,3.5,5,5
377,2020-11-02T06:16:00,1,3.5,5,5
378,2020-11-02T06:17:00,0.5,3.5,5,5
379,2020-11-02T06:18:00,0.5,3.5,5,5
380,2020-11-02T06:19:00,0.5,3.5,5,5
381,2020-11-02T06:20:00,0.5,3.5,5,5
382,2020-11-02T06:21:00,0.5,3.5,5,5
383,2020-11-02T06:22:00,0.5,3.5,5,5
384,2020-11-02T06:23:00,1,4,5.5,5.5
385,2020-11-02T06:24:00,1,3.5,5.5,5.5
386,2020-11-02T06:25:00,0.5,3.5,5.5,5.5
387,2020-11-02T06:26:00,0.5,3.5,5.5,5.5
388,2020-11-02T06:27:00,0.5,3.5,5.5,5.5
389,2020-11-02T06:28:00,0.5,3.5,5.5,5.5
390,2020-11-02T06:29:00,0.5,3.5,5.5,5.5
391,2020-11-02T06:30:00,0.5,3.5,5.5,5.5
392,2020-11-02T06:31:00,0.5,3.5,5.5,5.5
393,2020-11-02T06:32:00,1,4,6,6
394,2020-11-02T06:33:00,0.5,3.5,6,6
395,2020-11-02T06:34:00,0.5,3.5,6,6
396,2020-11-02T06:35:00,0.5,3.5,6,6
397,2020-11-02T06:36:00,0.5,3.5,6,6
398,2020-11-02T06:37:00,1,4,6.5,6.5
399,2020-11-02T06:38:00,1,3.5,6.5,6.5
400,2020-11-02T06:39:00,1,3.5,6.5,6.5
401,2020-11-02T06:40:00,1,3.5,6.5,6.5
402,2020-11-02T06:41:00,1,3.5,6.5,6.5
403,2020-11-02T06:42:00,0.5,3.5,6.5,6.5
404,2020-11-02T06:43:00,0.5,3.5,6.5,6.5
405,2020-11-02T06:44:00,1,4,7,7
406,2020-11-02T06:45:00,1,4,7,7
407,2020-11-02T06:46:00,1,3.5,7,7
408,2020-11-02T06:47:00,0.5,3.5,7,7
409,2020-11-02T06:48:00,0.5,3.5,7,7
410,2020-11-02T06:49:00,1,4,7.5,7.5
411,2020-11-02T06:50:00,1,4,7.5,7.5
412,2020-11-02T06:51:00,1,4,7.5,7.5
413,2020-11-02T06:52:00,1,4,7.5,7.5
414,2020-11-02T06:53:00,1,4,7.5,7.5
415,2020-11-02T06:54:00,1,4.5,8,8
416,2020-11-02T06:55:00,1,4.5,8,8
417,2020-11-02T06:56:00,1,4.5,8,8
418,2020-11-02T06:57:00,1,4,8,8
419,2020-11-02T06:58:00,1.5,4.5,8.5,8.5
420,2020-11-02T06:59:00,1,4.5,8.5,8.5
421,2020-11-02T07:00:00,1,4.5,8.5,8.5
422,2020-11-02T07:01:00,1,4.5,8.5,8.5
423,2020-11-02T07:02:00,1,4.5,8.5,8.5
424,2020-11-02T07:03:00,1,4.5,8.5,8.5
425,2020-11-02T07:04:00,1,5,9,9
426,2020-11-02T07:05:00,1,5,9,9
427,2020-11-02T07:06:00,1,5,9,9
428,2020-11-02T07:07:00,1,4.5,9,9
429,2020-11-02T07:08:00,0.5,4.5,9,9
430,2020-11-02T07:09:00,0.5,4.5,9,9
431,2020-11-02T07:10:00,1,5,9.5,9.5
432,2020-11-02T07:11:00,1,5,9.5,9.5
433,2020-11-02T07:12:00,1,5,9.5,9.5
434,2020-11-02T07:13:00,1,5,9.5,9.5
435,2020-11-02T07:14:00,1,5.5,10,10
436,2020-11-02T07:15:00,1,5,10,10
437,2020-11-02T07:16:00,1,5,10,10
438,2020-11-02T07:17:00,1,5,10,10
439,2020-11-02T07:18:00,1,5,10,10
440,2020-11-02T07:19:00,1.5,5.5,10.5,10.5
441,2020-11-02T07:20:00,1,5.5,10.5,10.5
442,2020-11-02T07:21:00,1,5.5,10.5,10.5
443,2020-11-02T07:22:00,1,5.5,10.5,10.5
444,2020-11-02T07:23:00,1,5,10.5,10.5
445,2020-11-02T07:24:00,0.5,5,10.5,10.5
446,2020-11-02T07:25:00,0.5,5,10.5,10.5
447,2020-11-02T07:26:00,0.5,5,10.5,10.5
448,2020-11-02T07:27:00,0.5,5,10.5,10.5
449,2020-11-02T07:28:00,0.5,5,10.5,10.5
450,2020-11-02T07:29:00,0,5,10.5,10.5
451,2020-11-02T07:30:00,0,5,10.5,10.5
452,2020-11-02T07:31:00,0,5,10.5,10.5
453,2020-11-02T07:32:00,0,4.5,10.5,10.5
454,2020-11-02T07:33:00,0,4.5,10.5,10.5
455,2020-11-02T07:34:00,0.5,5,11,11
456,2020-11-02T07:35:00,0.5,5,11,11
457,2020-11-02T07:36:00,0.5,5,11,11
458,2020-11-02T07:37:00,0.5,4.5,11,11
459,2020-11-02T07:38:00,0.5,4.5,11,11
460,2020-11-02T07:39:00,0.5,4.5,11,11
461,2020-11-02T07:40:00,0.5,4.5,11,11
462,2020-11-02T07:41:00,0.5,4.5,11,11
463,2020-11-02T07:42:00,0.5,4.5,11,11
464,2020-11-02T07:43:00,0.5,4.5,11,11
465,2020-11-02T07:44:00,0,4,11,11
466,2020-11-02T07:45:00,0,4,11,11
467,2020-11-02T07:46:00,0,4,11,11
468,2020-11-02T07:47:00,0,4,11,11
469,2020-11-02T07:48:00,0,4,11,11
470,2020-11-02T07:49:00,0,3.5,11,11
471,2020-11-02T07:50:00,0,3.5,11,11
472,2020-11-02T07:51:00,0,3.5,11,11
473,2020-11-02T07:52:00,0,3.5,11,11
474,2020-11-02T07:53:00,0,3.5,11,11
475,2020-11-02T07:54:00,0,3,11,11
476,2020-11-02T07:55:00,0,3,11,11
477,2020-11-02T07:56:00,0,3,11,11
478,2020-11-02T07:57:00,0,3,11,11
479,2020-11-02T07:58:00,0,2.5,11,11
480,2020-11-02T07:59:00,0,2.5,11,11
481,2020-11-02T08:00:00,0,2.5,11,11
482,2020-11-02T08:01:00,0,2.5,11,11
483,2020-11-02T08:02:00,0.5,3,11.5,11.5
484,2020-11-02T08:03:00,0.5,3,11.5,11.5
485,2020-11-02T08:04:00,0.5,2.5,11.5,11.5
486,2020-11-02T08:05:00,0.5,2.5,11.5,11.5
487,2020-11-02T08:06:00,0.5,2.5,11.5,11.5
488,2020-11-02T08:07:00,0.5,2.5,11.5,11.5
489,2020-11-02T08:08:00,0.5,2.5,11.5,11.5
490,2020-11-02T08:09:00,0.5,2.5,11.5,11.5
491,2020-11-02T08:10:00,0.5,2,11.5,11.5
492,2020-11-02T08:11:00,0.5,2,11.5,11.5
493,2020-11-02T08:12:00,0,2,11.5,11.5
494,2020-11-02T08:13:00,0,2,11.5,11.5
495,2020-11-02T08:14:00,0,1.5,11.5,11.5
496,2020-11-02T08:15:00,0,1.5,11.5,11.5
497,2020-11-02T08:16:00,0,1.5,11.5,11.5
498,2020-11-02T08:17:00,0,1.5,11.5,11.5
499,2020-11-02T08:18:00,0,1.5,11.5,11.5
500,2020-11-02T08:19:00,0,1,11.5,11.5
501,2020-11-02T08:20:00,0,1,11.5,11.5
502,2020-11-02T08:21:00,0,1,11.5,11.5
503,2020-11-02T08:22:00,0,1,11.5,11.5
504,2020-11-02T08:23:00,0,1,11.5,11.5
505,2020-11-02T08:24:00,0,1,11.5,11.5
506,2020-11-02T08:25:00,0,1,11.5,11.5
507,2020-11-02T08:26:00,0,1,11.5,11.5
508,2020-11-02T08:27:00,0,1,11.5,11.5
509,2020-11-02T08:28:00,0,1,11.5,11.5
510,2020-11-02T08:29:00,0,1,11.5,11.5
511,2020-11-02T08:30:00,0,1,11.5,11.5
512,2020-11-02T08:31:00,0,1,11.5,11.5
513,2020-11-02T08:32:00,0,1,11.5,11.5
514,2020-11-02T08:33:00,0,1,11.5,11.5
515,2020-11-02T08:34:00,0,0.5,11.5,11.5
516,2020-11-02T08:35:00,0,0.5,11.5,11.5
517,2020-11-02T08:36:00,0,0.5,11.5,11.5
518,2020-11-02T08:37:00,0,0.5,11.5,11.5
519,2020-11-02T08:38:00,0,0.5,11.5,11.5
520,2020-11-02T08:39:00,0,0.5,11.5,11.5
521,2020-11-02T08:40:00,0,0.5,11.5,11.5
522,2020-11-02T08:41:00,0,0.5,11.5,11.5
523,2020-11-02T08:42:00,0,0.5,11.5,11.5
524,2020-11-02T08:43:00,0,0.5,11.5,11.5
525,2020-11-02T08:44:00,0,0.5,11.5,11.5
526,2020-11-02T08:45:00,0,0.5,11.5,11.5
527,2020-11-02T08:46:00,0.5,1,12,12
528,2020-11-02T08:47:00,0.5,1,12,12
529,2020-11-02T08:48:00,0.5,1,12,12
530,2020-11-02T08:49:00,0.5,1,12,12
531,2020-11-02T08:50:00,0.5,1,12,12
532,2020-11-02T08:51:00,0.5,1,12,12
533,2020-11-02T08:52:00,0.5,1,12,12
534,2020-11-02T08:53:00,0.5,1,12,12
535,2020-11-02T08:54:00,0.5,1,12,12
536,2020-11-02T08:55:00,0.5,1,12,12
537,2020-11-02T08:56:00,0,1,12,12
538,2020-11-02T08:57:00,0,1,12,12
539,2020-11-02T08:58:00,0,1,12,12
540,2020-11-02T08:59:00,0,1,12,12
541,2020-11-02T09:00:00,0,1,12,12
542,2020-11-02T09:01:00,0,1,12,12
543,2020-11-02T09:02:00,0,0.5,12,12
544,2020-11-02T09:03:00,0,0.5,12,12
545,2020-11-02T09:04:00,0,0.5,12,12
546,2020-11-02T09:05:00,0,0.5,12,12
547,2020-11-02T09:06:00,0,0.5,12,12
548,2020-11-02T09:07:00,0,0.5,12,12
549,2020-11-02T09:08:00,0,0.5,12,12
550,2020-11-02T09:09:00,0,0.5,12,12
551,2020-11-02T09:10:00,0,0.5,12,12
552,2020-11-02T09:11:00,0,0.5,12,12
553,2020-11-02T09:12:00,0,0.5,12,12
554,2020-11-02T09:13:00,0,0.5,12,12
555,2020-11-02T09:14:00,0,0.5,12,12
556,2020-11-02T09:15:00,0,0.5,12,12
557,2020-11-02T09:16:00,0,0.5,12,12
558,2020-11-02T09:17:00,0,0.5,12,12
559,2020-11-02T09:18:00,0.5,1,12.5,12.5
560,2020-11-02T09:19:00,0.5,1,12.5,12.5
561,2020-11-02T09:20:00,0.5,1,12.5,12.5
562,2020-11-02T09:21:00,0.5,1,12.5,12.5
563,2020-11-02T09:22:00,0.5,1,12.5,12.5
564,2020-11-02T09:23:00,0.5,1,12.5,12.5
565,2020-11-02T09:24:00,0.5,1,12.5,12.5
566,2020-11-02T09:25:00,1,1.5,13,13
567,2020-11-02T09:26:00,1,1.5,13,13
568,2020-11-02T09:27:00,1,1.5,13,13
569,2020-11-02T09:28:00,0.5,1.5,13,13
570,2020-11-02T09:29:00,0.5,1.5,13,13
571,2020-11-02T09:30:00,0.5,1.5,13,13
572,2020-11-02T09:31:00,0.5,1.5,13,13
573,2020-11-02T09:32:00,0.5,1.5,13,13
574,2020-11-02T09:33:00,0.5,1.5,13,13
575,2020-11-02T09:34:00,0.5,1.5,13,13
576,2020-11-02T09:35:00,0,1.5,13,13
577,2020-11-02T09:36:00,0,1.5,13,13
578,2020-11-02T09:37:00,0,1.5,13,13
579,2020-11-02T09:38:00,0,1.5,13,13
580,2020-11-02T09:39:00,0,1.5,13,13
581,2020-11-02T09:40:00,0.5,2,13.5,13.5
582,2020-11-02T09:41:00,0.5,2,13.5,13.5
583,2020-11-02T09:42:00,0.5,2,13.5,13.5
584,2020-11-02T09:43:00,0.5,2,13.5,13.5
585,2020-11-02T09:44:00,0.5,2,13.5,13.5
586,2020-11-02T09:45:00,0.5,2,13.5,13.5
587,2020-11-02T09:46:00,0.5,1.5,13.5,13.5
588,2020-11-02T09:47:00,0.5,1.5,13.5,13.5
589,2020-11-02T09:48:00,0.5,1.5,13.5,13.5
590,2020-11-02T09:49:00,0.5,1.5,13.5,13.5
591,2020-11-02T09:50:00,0,1.5,13.5,13.5
592,2020-11-02T09:51:00,0,1.5,13.5,13.5
593,2020-11-02T09:52:00,0,1.5,13.5,13.5
594,2020-11-02T09:53:00,0,1.5,13.5,13.5
595,2020-11-02T09:54:00,0,1.5,13.5,13.5
596,2020-11-02T09:55:00,0,1.5,13.5,13.5
597,2020-11-02T09:56:00,0,1.5,13.5,13.5
598,2020-11-02T09:57:00,0,1.5,13.5,13.5
599,2020-11-02T09:58:00,0,1.5,13.5,13.5
600,2020-11-02T09:59:00,0,1.5,13.5,13.5
601,2020-11-02T10:00:00,0,1.5,13.5,13.5
602,2020-11-02T10:01:00,0,1.5,13.5,13.5
603,2020-11-02T10:02:00,0,1.5,13.5,13.5
604,2020-11-02T10:03:00,0,1.5,13.5,13.5
605,2020-11-02T10:04:00,0,1.5,13.5,13.5
606,2020-11-02T10:05:00,0,1.5,13.5,13.5
607,2020-11-02T10:06:00,0,1.5,13.5,13.5
608,2020-11-02T10:07:00,0,1.5,13.5,13.5
609,2020-11-02T10:08:00,0.5,2,14,14
610,2020-11-02T10:09:00,0.5,2,14,14
611,2020-11-02T10:10:00,0.5,2,14,14
612,2020-11-02T10:11:00,0.5,2,14,14
613,2020-11-02T10:12:00,0.5,2,14,14
614,2020-11-02T10:13:00,0.5,2,14,14
615,2020-11-02T10:14:00,0.5,2,14,14
616,2020-11-02T10:15:00,0.5,2,14,14
617,2020-11-02T10:16:00,0.5,2,14,14
618,2020-11-02T10:17:00,0.5,2,14,14
619,2020-11-02T10:18:00,0,1.5,14,14
620,2020-11-02T10:19:00,0,1.5,14,14
621,2020-11-02T10:20:00,0,1.5,14,14
622,2020-11-02T10:21:00,0,1.5,14,14
623,2020-11-02T10:22:00,0.5,2,14.5,14.5
624,2020-11-02T10:23:00,0.5,2,14.5,14.5
625,2020-11-02T10:24:00,0.5,2,14.5,14.5
626,2020-11-02T10:25:00,0.5,1.5,14.5,14.5
627,2020-11-02T10:26:00,0.5,1.5,14.5,14.5
628,2020-11-02T10:27:00,0.5,1.5,14.5,14.5
629,2020-11-02T10:28:00,0.5,1.5,14.5,14.5
630,2020-11-02T10:29:00,0.5,1.5,14.5,14.5
631,2020-11-02T10:30:00,0.5,1.5,14.5,14.5
632,2020-11-02T10:31:00,0.5,1.5,14.5,14.5
633,2020-11-02T10:32:00,0,1.5,14.5,14.5
634,2020-11-02T10:33:00,0,1.5,14.5,14.5
635,2020-11-02T10:34:00,0,1.5,14.5,14.5
636,2020-11-02T10:35:00,0,1.5,14.5,14.5
637,2020-11-02T10:36:00,0,1.5,14.5,14.5
638,2020-11-02T10:37:00,0,1.5,14.5,14.5
639,2020-11-02T10:38:00,0,1.5,14.5,14.5
640,2020-11-02T10:39:00,0,1.5,14.5,14.5
641,2020-11-02T10:40:00,0,1,14.5,14.5
642,2020-11-02T10:41:00,0,1,14.5,14.5
643,2020-11-02T10:42:00,0,1,14.5,14.5
644,2020-11-02T10:43:00,0.5,1.5,15,15
645,2020-11-02T10:44:00,0.5,1.5,15,15
646,2020-11-02T10:45:00,0.5,1.5,15,15
647,2020-11-02T10:46:00,0.5,1.5,15,15
648,2020-11-02T10:47:00,0.5,1.5,15,15
649,2020-11-02T10:48:00,0.5,1.5,15,15
650,2020-11-02T10:49:00,0.5,1.5,15,15
651,2020-11-02T10:50:00,0.5,1.5,15,15
652,2020-11-02T10:51:00,0.5,1.5,15,15
653,2020-11-02T10:52:00,0.5,1.5,15,15
654,2020-11-02T10:53:00,0,1.5,15,15
655,2020-11-02T10:54:00,0,1.5,15,15
656,2020-11-02T10:55:00,0,1.5,15,15
657,2020-11-02T10:56:00,0,1.5,15,15
658,2020-11-02T10:57:00,0,1.5,15,15
659,2020-11-02T10:58:00,0,1.5,15,15
660,2020-11-02T10:59:00,0,1.5,15,15
661,2020-11-02T11:00:00,0,1.5,15,15
662,2020-11-02T11:01:00,0,1.5,15,15
663,2020-11-02T11:02:00,0,1.5,15,15
664,2020-11-02T11:03:00,0,1.5,15,15